Miscellaneous Local Product
Issued by NWS Hastings, NE

Home | Current Version | Previous Version | Graphics & Text | Print | Product List | Glossary On
Versions: 1 2 3 4 5 6 7 8 9 10 11 12 13 14 15 16 17 18 19 20 21 22 23 24 25 26 27 28 29 30 31 32 33 34 35 36 37 38 39 40 41 42 43 44 45 46 47 48 49 50
511
AXUS43 KGID 210602
MISGRI

GID CWA HOURLY WEATHER ROUNDUP
NATIONAL WEATHER SERVICE HASTINGS NE
100 AM CDT MON AUG 21 2017

NOTE: "FAIR" INDICATES FEW OR NO CLOUDS BELOW 12,000 FEET WITH NO
SIGNIFICANT WEATHER AND/OR OBSTRUCTIONS TO VISIBILITY.

...SOUTH CENTRAL NEBRASKA...

CITY           SKY/WX    TMP DP  RH WIND       PRES   REMARKS
GRAND ISLAND   PTCLDY    72  72 100 NE3       29.95S
HASTINGS       MOCLDY    78  68  71 S9        29.96R
KEARNEY        PTCLDY    75  70  84 S7        29.96R
ORD            CLOUDY    72  68  87 E3        29.95F
YORK           PTCLDY    75  73  94 SE6       29.95S
AURORA         PTCLDY    75  74  96 S8        29.95S
LEXINGTON      PTCLDY    73  71  94 CALM      29.97R FOG
HOLDREGE       PTCLDY    74  66  76 SW6       29.97R
HEBRON         MOCLDY    80  72  76 S10       29.96S

...NEBRASKA PANHANDLE...

CITY           SKY/WX    TMP DP  RH WIND       PRES   REMARKS
CHADRON        PTCLDY    70  61  73 NW5       30.02R
ALLIANCE       PTCLDY    64  62  93 SE8       30.03F
SCOTTSBLUFF    CLOUDY    68  63  84 E7        30.03R
SIDNEY         CLOUDY    65  63  93 E6        30.07S

...WESTERN AND NORTH CENTRAL NEBRASKA...

CITY           SKY/WX    TMP DP  RH WIND       PRES   REMARKS
VALENTINE      CLEAR     67  61  81 E7        30.01F
AINSWORTH      PTCLDY    66  66 100 NE6       30.01F
ONEILL         CLOUDY    70  70 100 NE5       29.98F
BROKEN BOW     PTCLDY    73  70  90 E7        29.98S
IMPERIAL       CLEAR     68  66  93 SE7       30.00S
NORTH PLATTE   CLOUDY    73  72  96 E7        29.99R
MCCOOK         PTCLDY    76  67  73 SW6       29.96S

...EASTERN NEBRASKA...

CITY           SKY/WX    TMP DP  RH WIND       PRES   REMARKS
NORFOLK        MOCLDY    72  68  87 CALM      29.96S
SO SIOUX CITY  TSTM      71  70  96 E5        29.96R
TEKAMAH        CLOUDY    73  67  81 NE8       29.96R
COLUMBUS       CLEAR     71  68  90 E3        29.94F
ALBION         CLOUDY    73  70  90 E8        29.96F
OMAHA EPPLEY   PTCLDY    74  66  76 S9        29.93F
OFFUTT AFB     CLEAR     72  67  84 SE9       29.91F
MILLARD        CLEAR     74  70  87 SE5       29.92F
LINCOLN        CLOUDY    77  73  87 S10       29.93F
NEBRASKA CITY  CLEAR     74  74 100 S12       29.94F
BEATRICE       PTCLDY    81  74  81 S13G18    29.96F
FALLS CITY     CLEAR     79  75  87 S9        29.95F

...NORTHERN KANSAS...

CITY           SKY/WX    TMP DP  RH WIND       PRES   REMARKS
GOODLAND       CLOUDY    69  63  81 S7        30.02S
HILL CITY      CLOUDY    80  64  58 S8        29.98R
NORTON         CLEAR     75  57  53 S8        29.96R
PHILLIPSBURG   CLEAR     81  63  54 S8        29.96R
SMITH CENTER   CLOUDY    75  66  73 S8        29.96S
HAYS           CLOUDY    81  68  64 S16G23    29.99R
RUSSELL        CLOUDY    81  69  67 S13G21    29.97S
CONCORDIA      MOCLDY    81  68  64 S13       29.97R
SALINA         PTCLDY    85  68  56 S14       29.99R
TOPEKA         CLEAR     79  73  82 S10       30.01F



USA.gov is the U.S. government's official web portal to all federal, state and local government web resources and services.